Theta_e
318 318 317 316 314 312 314 321 318 324 320 317 311 311 310 307 313 315 314 314 312 310 308 307 307 307 309 314 309 306 309 308 306 306 310 309 306 306 309 304 305 307 309 310
318 318 317 315 313 313 314 322 321 324 321 313 314 313 312 313 312 311 314 313 314 314 311 310 311 311 315 314 312 311 310 307 305 306 309 310 310 309 304 310 312 309 307 310
318 318 317 315 314 314 316 321 318 321 320 316 313 311 311 311 313 309 313 313 315 313 311 311 310 311 314 314 314 320 315 307 306 304 307 308 308 310 313 313 310 311 312 315
318 318 317 316 314 314 317 317 314 315 314 315 310 310 310 309 309 312 313 312 311 311 309 311 309 311 314 315 316 312 312 308 308 308 308 307 308 312 311 309 312 310 313 317
319 318 317 316 314 313 322 317 316 318 316 314 312 308 311 310 311 310 308 310 310 312 309 309 307 309 311 310 314 311 310 308 308 308 308 310 311 313 314 311 314 314 317 316
319 319 318 317 314 315 321 320 320 318 309 314 313 312 312 312 312 312 312 310 311 311 311 313 314 313 312 311 310 311 309 309 308 306 307 309 307 312 315 317 316 316 314 320
318 319 318 318 316 314 315 319 319 317 314 316 314 314 314 313 313 311 315 315 313 315 317 313 311 311 311 310 310 310 308 308 307 306 308 300 310 318 317 317 317 321 321 324
316 318 319 319 317 315 316 320 321 318 313 315 316 315 313 314 315 314 315 318 319 316 312 311 309 310 310 308 307 308 309 309 305 305 304 306 312 317 318 317 316 326 323 326
315 316 319 319 318 315 319 320 322 321 316 312 317 315 314 314 314 315 315 320 319 315 313 311 305 305 306 305 307 308 308 309 310 305 301 299 311 318 323 325 314 327 328 331
314 315 318 320 319 316 316 319 321 321 317 319 318 314 315 317 314 313 313 316 317 317 315 311 310 308 310 306 306 308 309 310 306 305 304 306 314 319 322 314 315 328 332 334
315 315 318 320 320 318 316 319 322 320 317 318 320 320 318 317 316 313 314 313 315 316 312 312 312 311 311 310 310 311 311 311 309 306 306 302 321 323 316 322 326 329 334 337
315 316 317 319 320 318 318 315 321 322 318 316 321 324 326 323 321 316 316 314 314 317 313 312 313 311 311 309 308 314 312 315 315 315 315 321 324 323 326 327 329 331 336 338
317 317 317 320 319 318 317 313 316 319 316 317 317 317 322 325 325 325 314 316 316 316 318 316 314 310 312 310 311 312 315 317 319 317 320 322 323 327 328 330 331 332 335 337
316 318 318 317 316 315 316 313 318 318 317 312 314 323 322 326 325 326 324 318 317 317 318 316 315 312 313 313 312 313 316 318 318 316 320 322 324 327 329 327 329 329 331 333
315 315 314 314 314 313 313 313 315 318 315 309 313 319 321 322 324 322 324 320 319 319 316 315 314 315 314 314 314 312 316 319 316 315 326 326 325 327 327 327 327 329 329 327
313 314 313 313 313 312 313 313 315 316 321 314 308 319 319 321 321 320 320 321 319 319 317 316 315 314 317 312 311 319 318 319 320 321 323 323 324 325 327 327 327 328 329 330
312 313 313 313 312 311 308 310 313 313 319 314 311 311 318 320 320 317 316 318 319 319 317 315 316 316 317 314 310 319 319 320 320 320 323 322 324 323 327 326 327 328 332 332
311 312 313 312 311 311 309 314 311 311 313 316 310 310 313 317 316 313 317 315 316 316 317 315 315 314 315 310 317 317 318 319 319 321 322 322 324 325 328 327 328 330 330 332
311 312 312 311 310 308 312 318 314 317 315 311 310 308 308 318 315 315 315 317 312 315 314 314 315 312 310 315 314 315 317 318 319 321 324 323 321 323 326 326 327 329 331 332
310 309 305 302 305 315 317 314 310 310 311 309 309 314 311 315 313 313 313 314 313 309 313 314 312 312 315 314 316 319 321 323 323 319 322 321 322 323 325 326 329 331 333 333
306 302 302 310 313 311 307 304 304 307 305 308 311 313 311 315 311 312 314 312 312 307 311 311 310 310 313 312 313 317 321 323 324 326 326 324 325 324 324 327 328 330 333 334
305 305 308 310 308 304 299 299 303 302 303 309 309 312 314 314 316 312 311 311 311 306 312 310 307 310 310 311 312 314 318 321 323 326 328 328 325 326 326 326 327 329 332 335
308 304 301 301 300 292 292 291 295 300 305 310 311 308 312 313 314 310 308 305 306 313 308 307 309 309 310 310 311 313 315 318 322 324 326 329 329 328 328 326 328 329 332 336
298 296 289 295 294 295 296 298 300 303 307 310 311 309 311 312 310 310 304 308 308 302 302 304 306 308 309 311 311 311 311 314 317 320 323 324 326 328 329 328 329 330 330 334
295 297 289 293 299 300 301 303 303 306 309 311 309 309 310 308 307 310 308 303 301 301 300 302 307 310 310 309 310 310 310 312 314 317 319 322 324 326 328 330 329 330 333 334
296 296 294 299 298 299 301 301 301 306 309 310 310 305 303 303 306 303 303 302 299 301 305 307 310 310 309 309 310 311 311 312 312 315 317 320 322 323 325 328 330 330 332 333
294 295 300 299 299 299 301 302 304 309 307 301 304 300 298 303 300 301 302 300 304 306 307 310 314 313 313 312 311 312 312 312 313 314 316 318 321 324 325 327 329 330 332 336
Wind_Speed
28 29 30 31 30 33 4 3 2 3 3 1 1 2 4 5 6 4 5 4 4 3 1 2 2 2 1 4 9 9 3 1 3 2 2 1 1 2 4 4 5 0 3 4
26 29 30 31 29 26 5 3 2 2 2 3 3 2 2 5 8 7 6 6 6 4 2 2 1 2 3 6 3 4 7 1 2 4 5 4 1 2 2 5 3 5 3 5
25 27 30 31 30 27 2 2 0 3 4 2 2 3 5 3 4 4 4 3 3 2 4 5 3 2 4 4 3 6 4 3 3 3 2 4 1 1 7 3 4 8 2 6
23 25 27 30 33 31 2 5 3 2 3 5 4 1 3 5 6 6 8 4 9 3 6 3 5 6 4 4 4 3 2 4 1 4 3 1 4 3 7 5 2 4 7 11
20 23 25 26 30 32 4 4 3 2 2 2 2 4 3 3 3 5 4 4 5 7 4 3 3 5 4 4 6 4 3 3 1 1 7 1 2 4 2 2 3 3 11 10
18 18 22 23 24 20 4 2 0 2 2 2 1 3 2 4 2 2 3 2 1 4 3 4 6 4 4 3 4 5 3 3 2 1 8 3 4 5 4 1 2 1 4 7
18 17 17 18 17 13 2 2 2 3 2 2 3 2 2 3 4 0 2 3 2 3 7 3 1 1 1 1 0 4 2 4 1 2 4 3 5 3 5 1 4 4 8 13
16 16 15 14 16 17 2 1 2 2 1 2 1 4 3 2 2 0 1 2 3 6 3 1 1 1 3 3 6 1 2 2 4 1 1 5 2 3 3 3 5 3 9 12
15 15 14 12 12 13 3 2 2 1 2 3 1 3 2 2 3 0 1 1 3 0 2 1 1 1 1 3 3 4 5 4 1 3 2 4 3 2 4 2 2 6 8 14
15 15 14 12 10 10 5 3 2 2 2 2 3 1 2 1 0 2 3 6 3 3 2 2 1 2 1 3 2 4 4 3 2 3 3 3 2 5 4 5 3 3 9 13
14 14 14 12 8 8 6 4 2 3 2 5 4 3 3 3 1 2 4 3 2 1 2 1 1 1 2 1 1 0 2 4 3 3 2 4 2 3 3 4 2 3 7 11
15 13 12 11 6 5 5 3 2 3 4 4 3 7 9 6 2 3 1 3 2 1 2 1 1 1 1 1 3 2 3 2 1 4 2 3 3 4 5 2 3 3 7 7
14 11 10 8 4 3 2 3 3 2 3 5 3 7 1 4 11 13 4 3 1 3 2 2 2 1 1 1 2 2 2 3 2 3 4 3 3 2 1 2 6 6 6 9
13 10 5 4 3 4 3 2 1 2 2 4 2 3 6 2 6 12 11 2 4 4 1 1 1 1 3 1 1 3 1 5 4 2 3 4 5 5 3 4 4 6 5 5
11 7 5 5 5 6 4 4 4 3 3 3 6 11 2 5 8 8 12 10 3 1 2 2 2 2 3 1 1 4 5 4 5 3 5 1 2 2 3 5 7 6 6 5
11 6 6 6 6 8 2 3 3 5 2 3 4 4 3 1 6 8 11 9 4 2 3 2 2 0 3 3 3 5 6 5 4 1 4 3 2 4 6 9 7 6 5 4
8 7 7 7 6 2 3 3 2 2 2 3 4 4 1 1 3 3 4 6 3 3 3 4 3 3 3 2 4 4 3 4 3 3 1 3 2 4 6 9 8 7 5 3
9 8 9 9 10 8 5 2 10 5 3 3 4 4 3 1 3 4 2 5 3 3 2 2 3 4 2 5 7 4 5 6 6 9 9 11 9 6 7 9 9 10 7 7
9 8 10 3 2 3 0 9 10 2 4 3 4 3 3 1 2 2 3 2 5 2 4 4 6 4 6 3 3 2 4 4 6 9 7 7 11 9 6 10 11 12 10 9
5 2 1 2 3 5 4 2 3 4 4 4 4 1 2 2 2 3 4 3 4 6 6 6 6 5 6 2 3 4 6 6 6 5 3 1 4 8 9 13 12 13 13 12
1 1 3 3 5 1 2 4 5 5 5 5 4 9 5 3 3 3 2 3 4 6 6 9 6 5 6 3 3 4 5 6 7 8 10 11 9 5 4 7 11 10 10 12
1 2 3 3 3 2 4 4 3 4 5 5 8 13 6 3 2 2 3 3 3 6 7 7 6 4 4 3 4 5 7 7 7 7 7 6 8 9 8 8 8 12 13 12
2 3 3 3 3 5 6 5 3 3 3 4 4 9 5 3 2 1 3 5 6 5 6 4 3 6 3 3 5 5 7 7 7 8 8 8 9 7 8 10 9 8 9 10
3 3 3 5 5 5 5 5 2 3 3 2 4 6 3 3 6 3 4 4 3 4 7 5 5 5 3 2 4 5 8 9 9 9 9 9 10 10 8 7 7 8 10 11
3 4 5 8 4 3 3 4 4 1 3 3 3 3 1 3 3 4 4 3 5 1 4 4 6 5 3 2 3 4 6 7 8 9 9 9 9 9 9 7 5 8 8 9
3 5 5 3 2 3 3 4 6 1 1 2 1 3 2 5 3 5 8 6 3 5 5 6 5 3 2 0 2 4 4 6 6 8 9 9 10 11 12 12 8 7 10 11
4 2 2 3 2 3 3 4 2 3 2 2 2 5 4 2 2 3 2 3 7 6 5 4 3 3 2 3 4 4 5 7 7 8 8 8 9 10 10 12 10 9 10 11
Wind_Direction
342 344 345 347 348 344 23 339 54 41 272 87 11 47 327 335 359 21 52 86 67 61 116 123 178 124 265 344 162 169 177 243 316 9 54 350 13 108 194 230 182 288 315 97
344 343 346 347 349 357 318 35 326 79 281 77 40 333 64 36 26 29 24 43 36 53 41 115 287 352 40 31 140 149 169 175 147 142 156 154 60 81 100 112 139 183 216 117
345 346 346 347 348 350 280 329 39 7 58 25 19 12 20 26 35 65 36 55 100 99 49 37 96 36 37 19 87 59 127 91 330 236 25 349 26 113 156 275 192 155 187 135
346 348 348 348 347 345 254 10 63 1 8 29 40 33 8 17 14 18 26 59 48 81 24 34 39 20 3 88 15 86 339 90 38 76 354 225 297 292 219 248 302 251 121 143
345 348 352 351 350 338 70 18 354 17 44 289 301 8 63 36 19 356 24 54 32 38 72 26 347 350 24 30 355 39 358 97 308 88 8 47 128 31 106 208 201 110 139 101
344 347 352 358 359 349 40 24 153 278 19 8 159 32 354 31 297 44 37 30 70 14 39 301 306 292 310 326 339 2 24 121 7 239 343 312 197 354 323 145 185 349 147 123
340 343 348 353 6 17 317 26 285 318 15 9 53 352 302 357 359 133 27 22 315 24 321 195 155 326 318 302 74 301 119 101 39 348 315 253 64 314 262 344 100 127 104 147
334 338 341 347 353 2 291 327 306 9 341 316 286 354 347 323 340 222 237 52 350 333 352 295 18 110 148 56 36 169 346 139 105 270 258 322 183 42 355 5 117 130 133 143
329 332 332 337 347 354 322 321 307 308 317 181 316 316 355 8 345 305 251 7 340 32 60 83 118 146 52 149 114 63 97 67 274 154 225 230 51 7 325 261 169 154 158 154
321 323 324 324 338 352 333 296 335 269 274 250 205 221 331 132 157 290 314 343 348 342 35 72 99 113 286 168 139 157 133 75 205 156 227 264 256 300 300 208 55 156 166 160
310 315 311 314 321 349 343 293 302 318 280 274 216 247 206 169 176 315 15 248 153 52 82 286 106 246 74 162 42 346 168 158 150 141 206 235 29 269 251 32 79 168 169 161
302 309 296 302 307 339 346 282 17 328 245 295 284 264 261 251 263 289 211 334 244 178 112 177 156 160 189 178 132 163 176 282 101 242 77 335 287 286 315 267 122 137 159 164
313 297 281 295 337 352 341 287 309 270 279 266 272 244 236 214 220 220 236 209 200 173 343 128 93 201 211 193 141 196 198 177 191 208 163 254 317 166 171 117 112 127 142 165
338 355 33 40 12 356 334 267 308 276 301 276 278 341 281 243 182 199 219 52 122 93 186 122 145 206 217 179 23 267 36 166 168 237 239 253 234 222 184 158 154 130 130 153
327 349 13 12 347 327 287 248 242 256 288 307 295 305 243 229 200 201 196 206 182 139 161 185 206 125 182 118 236 240 192 178 201 210 192 183 224 184 201 201 190 173 164 160
324 329 335 334 338 339 290 252 171 212 229 271 285 334 255 143 190 188 182 194 193 210 199 179 194 207 242 210 234 258 220 223 241 265 178 212 297 278 230 217 195 189 207 223
300 310 302 303 312 311 236 327 46 47 210 233 264 253 193 274 177 137 139 170 179 217 161 200 166 167 215 214 231 253 248 268 253 247 216 237 212 320 251 217 189 177 207 190
293 284 284 287 286 271 273 231 219 180 265 241 253 255 267 161 171 167 172 149 182 177 151 150 178 140 212 242 241 279 290 275 242 238 242 262 286 286 260 209 178 181 186 168
299 276 290 290 206 225 116 114 128 218 269 237 208 232 158 90 127 125 149 203 172 102 202 197 173 156 213 221 303 325 360 328 323 317 290 256 241 243 230 205 198 195 189 187
304 293 246 245 216 316 297 113 197 200 204 217 239 209 213 226 174 154 154 200 182 177 193 133 214 209 107 80 280 296 312 321 315 289 257 241 237 217 210 208 207 202 192 193
245 240 244 312 297 227 221 217 208 179 206 192 203 207 203 168 205 155 238 170 165 202 173 196 199 211 156 21 328 339 328 318 295 279 277 275 275 279 248 235 224 215 211 204
311 305 286 266 246 186 243 234 227 223 211 184 186 193 199 143 183 205 175 217 189 223 140 191 198 118 117 17 0 351 343 336 333 326 315 308 270 261 252 249 239 226 214 216
273 233 233 197 192 237 206 216 226 228 202 186 178 181 188 144 214 164 193 213 216 114 187 201 88 122 114 28 4 358 354 347 344 353 354 346 332 301 254 247 238 220 224 215
236 226 223 217 194 226 228 242 330 329 310 165 165 153 169 145 180 181 214 213 160 218 197 166 144 137 118 36 7 4 359 354 349 344 344 346 339 326 307 266 251 220 217 216
232 230 216 223 242 269 266 281 282 255 306 221 150 99 170 170 178 203 202 191 220 27 116 137 145 140 121 87 35 10 359 350 345 339 334 333 328 322 322 322 288 242 240 205
247 220 254 212 232 261 251 252 260 236 233 300 272 142 223 186 215 186 205 199 126 126 129 134 141 154 144 173 334 345 346 333 326 330 337 328 324 330 328 312 290 254 228 215
256 248 275 274 293 288 313 324 4 304 186 279 138 179 189 343 207 158 50 82 121 121 126 135 165 198 250 330 318 326 337 336 339 332 330 326 320 325 327 326 331 290 249 227